Temp
31 28 26 29 31 32 34 33 30 28 31 30 30 32 31 28 28 24 23 21 20 23 24 30 29 29 28 27 27 26 26 25 24 23 23 23 23 23 23 23 23 23 23 23
30 27 30 33 34 34 34 33 33 33 32 28 31 35 29 30 29 31 23 22 21 22 21 26 18 25 27 27 27 26 25 25 24 23 23 22 22 22 22 22 23 22 22 22
29 31 34 34 33 34 33 33 33 34 35 33 34 33 30 29 28 29 26 23 23 24 24 22 19 21 22 26 26 26 25 24 24 23 22 22 21 21 21 22 22 22 22 21
31 34 35 34 34 34 31 34 35 35 34 30 33 28 28 27 28 30 29 30 26 24 24 22 22 19 20 27 27 26 25 24 23 22 22 21 20 19 20 20 20 20 21 21
31 33 34 34 34 35 32 35 34 35 31 29 31 28 29 28 29 28 28 26 28 26 26 24 23 23 27 27 26 25 24 23 22 22 21 21 20 20 20 20 20 20 20 20
33 36 35 34 36 35 36 35 32 34 30 26 29 30 27 28 29 29 28 27 28 28 28 27 27 29 26 25 25 24 23 22 22 21 21 20 19 19 19 19 19 20 20 20
32 33 35 37 35 34 35 32 26 26 26 26 32 30 30 31 32 30 29 28 29 28 27 26 25 26 25 25 23 23 23 22 22 21 21 20 19 19 19 19 19 19 20 20
28 29 33 35 33 32 31 29 25 28 27 28 29 31 27 23 24 29 31 29 28 27 25 24 25 26 26 26 24 23 23 22 22 21 20 20 19 19 19 19 19 19 19 19
29 31 36 36 36 33 31 30 30 28 30 28 28 30 28 27 29 31 30 29 28 27 26 26 26 26 26 26 24 23 23 23 22 21 20 20 20 19 19 18 19 19 19 19
30 29 33 36 36 34 32 32 30 26 28 27 29 26 23 24 26 28 30 28 27 26 25 25 25 26 26 25 24 24 23 22 22 21 20 20 20 19 19 19 19 19 19 19
32 28 31 33 34 32 32 31 31 27 27 26 26 25 25 24 24 24 25 23 26 25 24 24 24 26 26 26 25 24 23 22 22 21 21 20 20 19 19 19 19 19 19 19
32 29 28 30 34 35 34 31 28 25 27 27 26 26 25 24 23 25 24 23 21 25 24 25 25 26 26 26 25 24 23 23 22 21 21 21 21 20 20 19 19 19 19 19
32 28 28 29 30 33 33 32 31 28 27 27 27 24 24 22 20 22 22 21 20 24 23 24 25 26 25 26 25 24 24 23 22 22 21 21 21 21 20 20 19 19 19 19
30 29 28 27 29 32 33 33 33 29 26 28 28 24 22 21 21 21 22 21 20 23 24 23 24 24 25 24 24 25 24 23 22 22 22 22 21 21 20 20 19 19 18 19
30 29 30 30 32 33 33 33 34 32 30 28 29 26 26 23 21 22 22 20 19 22 25 24 25 24 24 24 25 25 25 24 23 22 22 22 22 21 21 20 19 18 18 18
29 27 30 29 31 32 33 34 34 34 34 32 28 24 23 23 23 23 23 22 20 23 25 25 25 24 24 24 24 24 24 24 24 23 22 22 22 22 21 20 19 19 18 17
28 27 27 27 30 30 29 32 32 32 32 32 28 25 22 24 25 24 23 26 24 25 23 21 21 21 20 20 20 20 20 22 23 24 23 22 22 22 21 20 19 18 17 17
28 26 26 26 27 26 30 30 31 33 33 27 25 24 25 23 23 22 21 22 23 22 21 19 18 17 16 17 18 18 19 20 21 23 22 22 22 22 20 18 17 16 16 15
27 26 25 25 25 28 30 31 31 31 30 28 26 25 24 23 24 22 21 21 20 19 17 16 16 15 15 15 16 17 18 19 20 21 22 20 21 19 18 16 15 14 14 14
27 25 24 26 26 26 28 32 33 31 28 27 26 24 23 23 22 20 20 19 17 16 15 15 15 14 13 13 14 15 15 16 16 16 17 18 19 17 16 15 14 13 13 12
25 24 24 25 25 27 31 32 33 28 25 26 25 24 23 24 22 20 19 16 16 15 14 14 13 12 12 12 12 12 12 12 12 14 14 15 16 15 14 13 12 12 11 11
24 24 24 25 25 24 27 29 30 24 23 24 25 23 21 21 20 19 18 16 15 14 14 12 11 10 10 11 11 10 10 10 11 11 11 12 12 12 12 12 11 10 10 9
22 20 22 22 23 21 19 22 24 24 22 22 21 20 21 21 20 17 15 15 14 13 12 11 10 10 10 10 10 9 9 10 10 9 9 9 10 9 10 10 9 8 9 8
19 21 20 22 22 20 20 19 19 19 23 22 22 22 22 20 17 15 14 14 13 12 11 11 10 10 9 9 9 9 9 9 9 9 9 9 8 8 8 8 8 8 7 7
21 19 20 22 20 21 19 18 18 18 19 22 23 22 20 18 16 16 15 13 12 11 11 11 10 9 9 9 9 9 9 9 9 8 8 8 7 7 8 8 8 8 8 8
19 20 20 20 20 19 18 18 18 18 17 21 21 20 18 17 15 15 14 12 11 11 11 11 11 10 10 10 9 10 10 9 9 8 8 8 8 7 8 8 7 8 8 8
Height
751 773 783 767 755 750 751 756 775 771 747 756 754 744 738 740 747 766 763 774 790 762 762 754 754 751 759 771 772 773 779 783 785 785 787 790 792 793 795 796 797 798 799 802
765 778 752 741 738 742 746 755 758 744 736 761 748 734 741 732 733 724 760 775 773 762 768 769 776 765 756 761 773 774 775 780 784 785 786 788 790 790 791 792 794 795 796 799
771 750 734 740 744 748 748 754 753 752 733 734 734 745 742 736 737 737 748 755 745 750 777 768 773 766 765 762 768 771 773 777 781 782 783 787 788 789 789 789 790 790 791 792
753 732 734 737 744 741 767 732 731 736 749 781 736 798 758 752 746 736 731 719 731 725 732 747 757 758 771 763 767 768 773 776 779 779 780 783 785 787 786 786 786 785 786 787
751 738 738 741 737 727 748 725 733 732 756 766 760 782 765 753 754 744 733 733 724 737 737 747 757 762 757 760 768 772 777 778 780 778 780 782 782 783 781 781 780 779 780 782
736 714 722 725 716 718 716 729 738 736 761 806 770 769 785 763 749 742 735 733 732 736 735 738 744 748 755 763 769 774 777 778 778 779 783 784 783 782 779 777 776 774 775 778
743 733 714 707 727 721 724 749 804 807 807 812 750 764 763 740 726 730 734 734 738 734 738 743 746 752 762 767 772 777 777 776 776 782 784 784 783 780 778 777 773 771 772 773
772 773 726 707 725 740 740 756 801 812 812 795 756 768 777 750 739 726 725 727 733 740 744 748 749 754 761 766 770 773 772 774 779 784 784 783 782 779 777 775 773 772 772 774
761 753 704 702 702 718 739 759 741 773 766 789 776 753 749 750 743 730 730 730 738 742 745 750 751 753 756 760 765 768 771 775 779 783 783 783 782 780 779 777 774 773 772 773
735 764 717 701 695 705 724 720 765 775 799 810 781 784 796 775 763 744 732 735 741 739 742 748 754 756 758 761 765 769 772 776 780 782 783 783 782 783 782 780 777 776 774 774
720 744 732 714 718 730 731 743 741 758 773 801 806 795 756 761 762 758 746 754 734 739 741 745 750 757 762 765 767 770 773 777 781 782 782 783 784 784 783 782 781 779 778 777
706 732 754 735 703 695 705 729 741 779 779 770 778 789 752 756 750 744 741 748 758 737 741 746 748 753 760 766 768 771 775 778 781 782 781 783 785 785 785 785 784 784 782 782
700 734 759 750 730 707 717 715 720 734 746 768 785 794 759 753 755 746 742 742 736 743 742 749 750 754 757 764 768 771 774 779 781 781 781 783 785 785 786 787 787 787 786 786
694 720 741 764 747 720 726 717 712 729 765 759 760 774 766 752 751 741 732 754 759 746 745 752 751 753 758 760 766 770 773 777 779 780 782 783 785 786 787 788 789 789 790 790
704 733 724 723 715 712 715 713 706 722 727 752 743 749 740 747 744 744 750 760 772 760 747 751 751 755 758 759 765 768 770 774 777 779 781 783 785 786 787 789 789 791 792 793
700 733 719 731 715 714 715 705 701 701 703 713 730 754 736 735 739 739 736 741 757 750 746 749 753 756 759 762 767 769 771 773 774 775 780 783 785 786 788 790 791 793 795 797
716 726 735 749 725 725 743 716 707 706 698 705 733 732 734 728 729 728 734 729 740 744 751 756 755 758 763 766 768 770 771 772 774 774 777 781 784 786 789 792 793 794 796 798
718 729 734 750 739 770 722 699 698 697 694 704 714 725 723 726 733 739 741 743 746 753 756 759 760 763 767 770 771 772 772 773 774 775 778 780 782 786 790 792 795 797 799 800
710 726 742 755 758 735 715 703 707 711 710 697 716 721 724 728 731 741 733 736 749 756 760 764 767 771 772 775 775 775 772 772 773 773 776 779 781 784 788 793 798 800 800 802
713 718 740 744 759 763 724 694 682 691 733 704 708 722 728 731 752 756 740 747 757 760 765 768 772 776 778 778 776 776 774 774 774 774 775 779 780 785 789 795 799 801 802 804
732 734 743 745 752 734 698 682 678 733 739 709 706 712 722 729 733 743 744 749 755 764 770 774 779 782 782 780 778 777 779 779 778 777 778 781 783 787 791 795 800 803 804 806
732 739 743 737 747 760 702 697 712 714 709 702 708 716 726 731 735 740 747 755 760 769 777 781 784 784 783 781 780 780 781 783 782 781 782 784 787 791 795 797 802 807 808 810
740 739 741 740 738 727 724 717 709 705 709 715 716 722 724 731 742 748 756 761 767 778 782 783 784 786 785 785 785 783 786 786 786 787 788 790 791 797 800 801 806 810 812 814
740 729 738 734 728 727 725 725 723 729 716 707 716 725 729 735 747 757 765 770 778 784 784 784 786 788 789 789 791 790 789 790 791 792 796 798 800 802 805 808 813 813 816 820
734 739 740 734 728 722 732 735 730 731 722 715 721 727 738 745 751 758 769 777 782 785 787 788 789 791 793 794 795 796 795 795 795 798 802 805 809 811 811 814 818 819 822 824
738 742 744 750 736 736 744 741 735 733 743 733 729 736 744 744 752 759 770 778 783 788 790 791 793 794 797 799 800 800 801 801 801 804 808 811 813 816 817 820 823 827 827 828
Wind_Speed
6 3 8 11 11 14 12 10 12 15 20 2 10 14 9 13 15 23 26 26 16 32 16 26 29 34 30 30 28 24 17 15 14 13 10 11 13 15 16 13 10 9 20 19
6 10 13 15 16 13 11 8 5 10 18 6 13 7 9 6 8 8 24 23 18 25 11 11 52 9 30 30 24 21 17 15 12 10 8 10 11 14 16 17 18 18 14 19
9 14 14 16 14 12 9 6 7 7 7 6 5 6 3 2 6 7 17 22 16 18 4 18 17 22 32 26 26 21 17 14 11 8 6 8 10 11 15 16 17 21 21 18
10 16 18 10 11 9 8 9 11 8 2 2 2 5 6 3 3 1 1 8 4 12 26 21 15 22 35 27 22 19 16 13 8 4 2 5 8 9 14 14 16 17 19 17
10 10 11 11 9 8 9 9 8 5 6 6 9 3 3 6 3 6 6 5 5 2 11 20 18 30 26 25 19 17 16 14 10 7 4 4 8 12 14 16 17 17 18 18
17 15 11 10 11 11 7 6 7 2 4 4 7 3 4 5 7 4 5 9 7 5 14 15 19 18 22 25 23 21 19 16 13 9 5 5 7 11 12 14 18 13 12 14
14 16 14 6 4 9 6 1 4 4 3 7 4 3 2 4 3 5 12 13 13 16 15 12 9 10 22 24 24 20 18 16 12 8 3 6 9 9 11 12 13 6 9 11
9 8 12 10 10 8 7 9 6 5 3 5 6 4 5 19 28 9 13 18 16 13 11 10 9 18 23 23 25 22 18 15 10 5 3 8 11 12 13 8 6 4 1 2
4 12 12 15 10 11 8 3 10 4 4 4 4 2 8 10 14 2 19 19 15 13 8 8 8 19 23 20 23 21 17 13 7 5 5 7 11 13 14 13 10 7 6 1
10 11 9 15 12 8 8 5 2 2 3 6 4 3 5 8 14 14 8 16 15 12 11 7 7 16 21 22 20 17 14 13 9 8 6 7 9 12 12 14 16 14 13 7
15 7 16 7 3 8 2 3 3 3 4 5 1 5 9 14 9 8 3 8 19 14 10 7 11 21 22 15 16 17 14 11 8 8 8 8 9 9 9 12 14 14 13 14
13 7 6 10 14 6 7 9 9 5 8 2 5 2 8 2 2 2 4 3 13 14 11 9 11 21 22 16 11 17 14 12 7 9 9 8 7 7 6 8 10 9 12 12
1 4 1 8 8 6 6 8 6 6 4 5 4 4 4 5 8 2 7 10 12 9 10 8 9 12 18 17 17 16 11 14 10 10 8 7 3 2 2 4 6 6 8 9
6 2 6 7 8 2 3 7 9 6 4 5 6 9 9 10 10 8 9 10 20 12 13 6 7 8 18 22 18 11 11 15 14 10 8 6 4 2 2 3 3 5 7 11
3 1 4 7 10 10 14 9 9 7 8 7 7 13 16 13 10 6 9 15 8 8 8 8 8 8 16 18 15 12 12 22 17 12 10 8 6 5 8 8 6 8 9 10
2 3 3 6 10 15 13 14 10 12 13 7 12 5 8 9 9 8 10 23 28 9 8 7 8 11 14 14 9 2 7 21 17 14 15 11 12 10 9 9 11 11 10 11
1 3 1 4 7 10 8 5 5 5 4 3 6 9 9 4 2 6 6 7 7 11 10 6 8 11 19 19 14 13 10 9 11 13 16 18 16 13 11 12 16 19 19 17
2 3 2 2 5 8 6 2 7 3 4 10 16 18 12 9 5 7 8 6 12 9 9 11 14 18 19 14 11 8 5 4 5 9 17 20 18 15 18 22 25 25 22 20
5 3 2 2 4 7 8 3 3 5 6 13 15 13 8 5 5 10 13 17 15 12 13 17 20 17 15 13 10 8 7 4 2 2 12 16 24 26 25 26 23 23 23 21
2 3 4 1 1 4 7 5 4 6 2 12 18 13 12 9 5 3 12 16 14 19 18 18 18 13 10 9 6 6 10 10 14 15 21 24 28 29 30 27 25 22 22 22
7 3 6 5 4 5 6 3 2 6 6 9 16 18 14 8 6 10 14 16 20 19 17 15 13 9 7 7 8 15 15 15 13 20 25 27 28 30 31 28 24 22 21 21
7 6 5 2 5 9 12 4 3 7 4 9 13 11 14 14 16 15 15 13 15 16 13 11 10 10 9 9 13 18 18 14 18 23 28 29 30 29 28 27 23 20 22 25
4 2 1 2 2 3 5 6 15 8 14 9 17 12 17 15 14 15 13 13 13 13 10 12 13 13 13 12 14 20 16 19 22 26 27 28 27 26 25 26 24 24 24 25
5 6 3 4 3 5 9 9 13 20 6 17 15 16 14 16 16 14 12 11 10 11 11 14 14 13 14 16 17 21 23 26 30 29 29 30 29 27 28 26 23 25 23 20
1 4 6 5 5 5 11 11 12 17 10 8 13 14 16 17 13 11 10 9 11 11 12 13 15 16 17 18 20 22 23 28 30 26 28 25 25 28 31 29 25 24 21 18
0 2 3 2 6 3 5 6 11 16 23 6 16 16 15 17 15 14 11 14 13 13 14 16 16 17 17 18 20 23 20 22 25 24 23 24 26 27 31 31 28 22 20 18
Wind_Direction
205 192 236 240 233 241 258 274 175 228 242 104 254 265 212 174 179 126 135 129 251 275 267 167 160 159 157 166 166 171 170 182 190 194 209 235 249 253 242 238 267 253 236 237
264 234 236 250 264 266 263 287 260 203 222 164 263 240 182 180 210 158 122 159 213 256 248 71 36 20 159 168 177 174 182 189 199 200 227 247 261 267 266 260 254 264 259 232
209 249 228 236 257 278 280 262 282 267 298 224 222 266 209 316 11 77 151 164 192 257 157 105 127 178 256 169 172 176 180 182 189 207 237 254 260 272 273 272 271 272 271 259
241 245 256 256 233 233 270 269 274 259 266 259 22 272 15 31 272 69 67 33 312 58 142 135 166 180 231 166 175 178 174 164 167 172 232 276 284 291 294 287 283 275 265 250
250 249 259 250 262 247 241 271 291 1 16 28 308 6 303 131 257 208 142 156 200 104 135 144 168 192 171 165 168 142 138 134 124 100 59 347 317 317 309 301 298 281 260 247
262 262 263 227 238 243 261 267 320 17 56 334 259 232 222 197 191 233 133 177 208 214 109 98 108 121 120 128 131 134 124 115 104 91 57 21 339 325 331 323 319 285 256 239
276 273 263 255 323 307 191 28 340 337 350 234 281 1 272 302 359 178 157 186 163 115 113 119 126 129 123 132 129 121 110 104 96 92 51 15 2 9 358 334 337 298 264 240
224 275 239 214 191 213 217 159 163 241 237 255 358 280 53 67 304 226 144 129 122 127 126 140 157 119 118 110 121 116 103 95 95 108 71 21 21 25 10 0 11 28 356 237
270 243 262 224 204 175 259 217 203 218 282 337 232 221 29 11 338 59 133 132 136 136 136 136 107 120 118 110 115 113 104 111 103 115 77 47 52 46 33 34 56 67 62 62
252 278 282 293 203 187 169 219 337 343 251 271 275 35 191 22 294 293 97 141 138 129 124 137 100 113 114 114 115 123 119 120 132 125 113 77 75 66 58 54 49 55 57 67
218 192 274 325 305 173 166 225 258 163 164 193 124 265 189 185 241 294 36 356 148 144 149 141 132 125 124 128 136 141 136 145 161 139 129 97 93 69 67 56 56 56 54 50
205 197 218 255 269 254 180 197 188 147 279 210 145 356 83 155 264 320 5 58 312 140 142 137 132 127 137 147 148 144 148 155 155 142 134 119 106 69 63 56 58 61 60 55
19 212 183 317 330 296 189 236 205 187 138 239 132 179 188 100 86 114 311 346 30 156 133 129 136 148 154 165 145 141 162 161 157 147 136 153 159 125 64 61 56 75 80 68
69 26 165 197 217 157 268 234 240 176 146 225 215 142 205 197 186 184 200 64 266 210 143 153 149 145 139 147 155 165 160 170 161 152 131 144 179 182 190 110 81 93 84 88
98 249 325 303 300 281 275 230 261 275 231 164 202 167 187 188 211 149 119 116 350 253 144 151 142 134 145 147 153 169 174 167 164 160 150 152 136 138 114 112 104 111 102 100
171 243 279 297 307 302 305 298 230 241 234 233 106 87 182 181 184 166 117 133 187 174 140 109 92 89 94 89 116 102 202 166 167 163 171 161 147 135 114 103 99 112 111 108
298 138 262 259 290 298 295 264 11 323 0 197 149 168 195 100 131 152 134 105 133 121 93 100 91 78 64 58 52 41 29 64 180 178 179 163 147 141 129 123 111 113 112 117
19 12 158 274 314 266 244 28 292 268 314 90 105 145 161 162 116 67 42 61 94 85 72 64 59 52 44 33 18 358 338 322 33 178 166 159 158 147 119 114 115 115 113 107
136 113 331 149 245 287 304 123 23 358 312 132 138 154 146 108 80 66 78 84 92 82 69 68 64 53 38 24 4 345 322 331 353 38 157 155 136 131 125 122 122 117 116 108
241 155 140 352 291 274 260 203 190 251 29 159 144 163 157 163 108 101 98 95 78 72 67 64 61 52 39 23 24 42 56 87 76 109 132 137 132 129 124 125 124 125 119 109
246 206 192 196 220 284 306 73 226 156 193 158 160 162 164 155 135 136 96 86 91 82 78 77 74 66 50 60 83 78 70 71 99 126 128 126 125 129 132 130 128 126 117 111
192 199 212 216 205 251 354 317 275 145 98 112 141 128 110 117 118 114 108 105 98 92 89 98 93 78 74 85 102 89 80 100 115 118 119 119 125 127 130 128 120 114 113 108
56 22 336 118 126 12 316 356 8 118 121 110 113 122 128 128 115 104 103 100 95 105 110 110 101 88 82 95 109 101 105 115 112 102 97 106 112 114 115 113 114 113 113 113
330 5 20 345 20 8 2 10 4 17 230 131 129 136 134 117 105 100 99 100 111 119 111 110 102 93 85 98 103 109 113 111 102 96 95 97 96 95 99 102 107 109 111 112
88 51 326 269 35 346 46 31 26 29 305 92 107 111 108 107 108 109 105 105 108 108 108 109 106 105 103 105 105 111 109 114 104 99 102 98 99 102 101 98 98 101 101 107
58 1 12 24 336 100 71 75 46 60 357 63 103 109 118 121 122 115 110 120 121 122 119 112 114 114 113 114 114 109 107 109 108 104 105 105 102 102 102 101 96 92 96 98